Location: Olda
(45.8833°N, 9.5500°E)
Time: 20:50:08
(UTC+00:00)

MOS 1 - Pass Details

Date: 03 March 2021
Orbit: 878 x 892 km, 99.1° (Epoch: 13 April)

Event Time Altitude Azimuth Distance (km) Brightness Sun altitude
Exits shadow 19:26:01 32° 167° (SSE) 1,472 5.2 -24.0°
Maximum altitude 19:28:48 86° 253° (WSW) 896 4.2 -24.5°
Drops below altitude 10° 19:34:31 10° 344° (NNW) 2,558 7.1 -25.4°
Sets 19:36:55 0° 345° (NNW) 3,499 7.9 -25.8°
